Regional Weather Roundup
Issued by NWS Sterling, VA

Home | Current Version | Previous Version | Graphics & Text | Print | Product List | Glossary On
Versions: 1 2 3 4 5 6 7 8 9 10 11 12 13 14 15 16 17 18 19 20 21 22 23 24 25 26 27 28 29 30 31 32 33 34 35 36 37 38 39 40 41 42 43 44 45 46 47 48 49 50
000
ASUS41 KLWX 011710
RWRLWX

REGIONAL WEATHER ROUNDUP
NATIONAL WEATHER SERVICE BALTIMORE MD/WASHINGTON DC
1200 PM EST SUN FEB 01 2015

Note: "FAIR" indicates few or no clouds below 12,000 feet
with no significant weather and/or obstructions to visibility.
 TC=TEMPERATURE CELSIUS

 * =Non NWS site. Station does not report precipitation (e.g. rain,
    snow, etc.), thunder, or fog.

DCZ001-MDZ009-015-VAZ040>042-051-053>054-011800-
WASHINGTON METRO

CITY           SKY/WX    TMP DP  RH WIND       PRES   REMARKS
WASHINGTON NAT CLOUDY    37  18  46 S7        30.24F
DULLES         CLOUDY    35  12  38 S8        30.22F WCI  29
ANDREWS AFB    CLOUDY    38  14  37 S10       30.22F
FT BELVOIR     CLOUDY    36  14  40 S6        30.24F
QUANTICO       CLOUDY    36  22  56 S7        30.26F
COLLEGE PARK*  CLOUDY    37  14  38 SW3       30.22F
LEESBURG*      CLOUDY    36  18  48 S8        30.22F
MANASSAS*      CLOUDY    37  12  35 S9        30.23F
GAITHERSBURG*  CLOUDY    36  16  44 S7        30.23F

$$

MDZ006>007-011-014-011800-
BALTIMORE METRO

CITY           SKY/WX    TMP DP  RH WIND       PRES   REMARKS
BWI AIRPORT    CLOUDY    37  17  44 S8        30.21F
MD SCIENCE CTR   N/A     37  18  46 MISG      30.22F
MARTIN STATE   PTSUNNY   37  21  52 SE8       30.25F
ANNAPOLIS      CLOUDY    36  16  44 S8        30.23F

$$

MDZ012-015-019>023-011800-
MARYLAND EASTERN SHORE

CITY           SKY/WX    TMP DP  RH WIND       PRES   REMARKS
OCEAN CITY     PTSUNNY   37  21  52 S7        30.26F
SALISBURY      CLOUDY    44  15  31 S5        30.24F
BAY BRIDGE AP*   N/A     36  18  48 S6        30.24F
CAMBRIDGE*     PTSUNNY   37  19  48 CALM      30.24F
EASTON*        PTSUNNY   39  21  48 CALM      30.28F

$$

MDZ017>025-011800-
SOUTHERN MARYLAND

CITY           SKY/WX    TMP DP  RH WIND       PRES   REMARKS
PATUXENT RIVER CLOUDY    39  19  44 SE9       30.25F
ST INIGOES     NOT AVBL
LEONARDTOWN*   CLOUDY    39  14  35 SE7       30.26F

$$

MDZ003>005-011800-
NORTH CENTRAL MARYLAND

CITY           SKY/WX    TMP DP  RH WIND       PRES   REMARKS
FREDERICK*     CLOUDY    37  19  48 SW6       30.23F
HAGERSTOWN APT CLOUDY    36  16  44 S5        30.16F
WESTMINSTER*   CLOUDY    37  25  60 S5        30.17F

$$

MDZ501>502-011800-
WESTERN MARYLAND

CITY           SKY/WX    TMP DP  RH WIND       PRES   REMARKS
OAKLAND*       FOG       32 N/A N/A SW9       30.04F VSB 1   WCI  24
CUMBERLAND*    CLOUDY    34  23  64 CALM      30.17F

$$

VAZ025>031-011800-
SHENANDOAH VALLEY

CITY           SKY/WX    TMP DP  RH WIND       PRES   REMARKS
WINCHESTER*    CLOUDY    37   9  30 S6        30.16F
FRONT ROYAL*   CLOUDY    36  18  48 CALM      30.16F
LURAY*         CLOUDY    43  19  39 CALM      30.15F
NEW MARKET*    CLOUDY    40  17  39 S5        30.14F
STAUNTON*      CLOUDY    45  10  24 CALM      30.15F
WAYNESBORO*    CLOUDY    42  11  28 E5        30.13F

$$

WVZ021-048>050-054>055-011800-
EASTERN WEST VIRGINIA PANHANDLE

CITY           SKY/WX    TMP DP  RH WIND       PRES   REMARKS
MARTINSBURG    CLOUDY    38  20  48 S6        30.17F
PETERSBURG*    NOT AVBL

$$

VAZ036>039-050-011800-
CENTRAL FOOTHILLS

CITY           SKY/WX    TMP DP  RH WIND       PRES   REMARKS
CHARLOTTESVILL CLOUDY    39  13  34 SE6       30.19F
CULPEPER*      CLOUDY    37  18  44 S7        30.22F
ORANGE*        CLOUDY    39  19  45 S6        30.22F
GORDONSVILLE*  CLOUDY    39  16  38 SE3       30.19F
WARRENTON*     CLOUDY    38  22  52 S5        30.22F

$$

VAZ055>057-011800-
NORTH AND CENTRAL PIEDMONT

CITY           SKY/WX    TMP DP  RH WIND       PRES   REMARKS
FREDERICKSBRG* CLOUDY    41  16  36 S8        30.24F
STAFFORD*      CLOUDY    39  11  31 CALM      30.28F

$$

NCZ024-NYZ072-PAZ021-071-VAZ022-071-011800-
OTHER REGIONAL OBSERVATIONS

CITY           SKY/WX    TMP DP  RH WIND       PRES   REMARKS
NEW YORK CITY  CLOUDY    34  17  50 VRB3      30.20F
PHILADELPHIA   CLOUDY    36  25  64 W9        30.24F WCI  29
PITTSBURGH     LGT SNOW  30  28  92 SE7       30.07F VSB 1
ROANOKE        CLOUDY    46   8  21 SE8       30.18F
RICHMOND       PTSUNNY   45  22  40 SE3       30.24F
RALEIGH        PTSUNNY   51  22  31 SW10      30.23F

$$

ANZ530>537-011800-
MARINE OBSERVATIONS

STATION/POSITION TIME  TEMP    WIND        PRES
                       AIR SEA DIR/SP/G
                 (UTC) (F)     (DEG/KT/KT) (MB)
THOMAS PT LIGHT  1700   32 35  150/  5/  5 1024.7F
BALT KEY BRIDGE  1700   35      90/  4/  4 1024.1F
COVE POINT       1700   34     190/ 12/ 13 1024.6F
LEWISETTA        1700   39 34  180/  7/  9 1024.4F
SOLOMONS ISLAND  1700      36                N/A
PINEY POINT      1700          150/  6/  7   N/A

$$




USA.gov is the U.S. government's official web portal to all federal, state and local government web resources and services.